Flag for USA

Past Weather in Eugene, Oregon, USA — Yesterday and Last 2 Weeks

Currently: 45 °F. Cool. (Weather station: Old Colton - MADIS Station, USA). See more current weather

Past Weather in Eugene — Graph

°F

Eugene Temperature Yesterday

Maximum temperature yesterday: 49 °F (at 1:10 pm)
Minimum temperature yesterday: 45 °F (at 4:20 am)
Average temperature yesterday: 46 °F

High & Low Weather Summary for the Past Weeks

 TemperatureHumidityPressure
High58 °F (Jan 12, 10:30 pm)100% (Jan 3, 3:20 am)29.73 "Hg (Jan 3, 3:20 am)
Low32 °F (Jan 9, 6:40 am)63% (Jan 5, 7:40 pm)28.82 "Hg (Jan 4, 6:10 am)
Average46 °F95%29.42 "Hg
* Reported Jan 2 7:20 pm — Jan 17 7:35 pm, Eugene. Weather by CustomWeather, © 2021

Note: Actual official high and low records may vary slightly from our data, if they occured in-between our weather recording intervals... More about our weather records

Eugene Weather History for the Previous 24 Hours

Scroll right to see more
 ConditionsComfort  
Time TempWeatherWind HumidityBarometerVisibility
7:35 pm
Sun, Jan 17
45 °FCool.No wind96%29.69 "HgN/A
7:25 pm45 °FCool.No wind96%29.69 "HgN/A
7:15 pm45 °FCool.No wind96%29.70 "HgN/A
6:35 pm47 °FCool.No wind94%29.71 "HgN/A
5:25 pm48 °FCool.No wind93%29.70 "HgN/A
5:05 pm49 °FCool.No wind93%29.69 "HgN/A
4:25 pm50 °FCool.1 mph92%29.69 "HgN/A
4:15 pm50 °FCool.No wind91%29.69 "HgN/A
3:35 pm51 °FCool.No wind92%29.68 "HgN/A
3:25 pm51 °FCool.No wind92%29.68 "HgN/A
3:05 pm51 °FCool.No wind91%29.67 "HgN/A
2:46 pm51 °FCool.No wind91%29.67 "HgN/A
2:05 pm50 °FCool.1 mph92%29.68 "HgN/A
12:35 pm48 °FCool.1 mph96%29.70 "HgN/A
12:05 pm47 °FCool.No wind97%29.71 "HgN/A
11:15 am46 °FCool.No wind98%29.73 "HgN/A
10:45 am45 °FCool.No wind100%29.73 "HgN/A
10:25 am45 °FCool.No wind100%29.72 "HgN/A
10:05 am44 °FQuite cool.No wind100%29.72 "HgN/A
9:55 am44 °FQuite cool.No wind100%29.72 "HgN/A
9:35 am44 °FQuite cool.No wind100%29.71 "HgN/A
9:15 am44 °FQuite cool.No wind100%29.70 "HgN/A
9:05 am43 °FQuite cool.No wind100%29.70 "HgN/A
8:35 am43 °FQuite cool.No wind100%29.68 "HgN/A
8:25 am43 °FQuite cool.No wind100%29.68 "HgN/A
7:35 am43 °FQuite cool.No wind100%29.68 "HgN/A
7:25 am44 °FQuite cool.No wind100%29.68 "HgN/A
7:05 am44 °FQuite cool.No wind100%29.68 "HgN/A
6:35 am44 °FQuite cool.No wind100%29.68 "HgN/A
6:25 am44 °FQuite cool.No wind100%29.68 "HgN/A
6:05 am44 °FQuite cool.No wind100%29.66 "HgN/A
4:45 am43 °FQuite cool.No wind100%29.69 "HgN/A
4:25 am43 °FQuite cool.No wind100%29.69 "HgN/A
4:05 am43 °FQuite cool.No wind100%29.68 "HgN/A
3:35 am43 °FQuite cool.No wind100%29.67 "HgN/A
3:25 am43 °FQuite cool.No wind100%29.67 "HgN/A
3:05 am44 °FQuite cool.No wind100%29.66 "HgN/A
2:25 am44 °FQuite cool.No wind100%29.65 "HgN/A
2:05 am44 °FQuite cool.No wind100%29.65 "HgN/A
1:35 am45 °FCool.No wind100%29.64 "HgN/A
1:25 am44 °FQuite cool.No wind100%29.64 "HgN/A
12:35 am43 °FQuite cool.No wind100%29.63 "HgN/A
12:25 am44 °FQuite cool.No wind100%29.62 "HgN/A
12:05 am44 °FQuite cool.No wind100%29.62 "HgN/A
11:35 pm
Sat, Jan 16
45 °FCool.No wind99%29.62 "HgN/A
10:45 pm46 °FCool.No wind100%29.60 "HgN/A
10:25 pm46 °FCool.No wind100%29.60 "HgN/A
10:15 pm46 °FCool.No wind100%29.60 "HgN/A
9:35 pm46 °FCool.No wind100%29.60 "HgN/A
9:05 pm46 °FCool.No wind99%29.61 "HgN/A
Weather by CustomWeather, © 2021

See weather overview